Location: Cieluchowce
(50.3833°N, 19.0833°E)
Time: 10:51:43
(UTC+00:00)

Daily predictions for brighter satellites

Satellite Brightness Start Highest point End
(mag) Time Altitude Azimuth Time Altitude Azimuth Time Altitude Azimuth
CZ-4B R/B 4.4 15:09:52 10° E 15:13:37 20° NE 15:17:20 10° N
SL-16 R/B 4.1 15:09:17 10° N 15:14:36 31° WNW 15:19:55 10° WSW
Cosmos 2360 Rocket 3.6 15:17:33 10° N 15:21:22 18° NNE 15:25:10 10° ENE
USA 306 3.1 15:18:45 10° WNW 15:22:57 54° N 15:27:07 10° E
Cosmos 1633 Rocket 4.1 15:19:43 10° NNE 15:23:22 25° ENE 15:27:00 10° SE
Cosmos 1939 Rocket 3.3 15:20:05 10° SE 15:23:55 41° ENE 15:27:43 10° N
Cosmos 1151 Rocket 4.3 15:21:58 10° SE 15:25:15 21° E 15:28:34 10° NE
Cosmos 1666 3.7 15:24:22 10° NNE 15:27:30 25° ENE 15:30:38 10° SE
Cosmos 1763 Rocket 3.5 15:23:12 10° SSW 15:28:17 86° WNW 15:33:28 10° NNE
Cosmos 1782 3.4 15:24:45 10° SSE 15:28:25 36° E 15:32:06 10° NNE
Cosmos 1818 3.8 15:23:27 10° NW 15:28:51 53° NE 15:34:10 10° ESE
Meteor 1-20 Rocket 4.4 15:23:13 10° NNW 15:29:06 88° WSW 15:34:57 10° S
SeaSat 1 3.2 15:24:29 10° NNE 15:29:18 52° NW 15:34:04 10° SW
SL-08 R/B 3.3 15:25:29 10° NNE 15:30:11 70° ESE 15:34:47 10° S
Meteor 2-14 Rocket 4.5 15:24:34 10° N 15:30:37 59° ENE 15:36:35 10° SSE
NOAA 12 4.1 15:26:09 10° SSE 15:31:27 74° ENE 15:36:46 10° NNW
Cosmos 1627 Rocket 4.5 15:25:25 10° N 15:31:34 65° ENE 15:37:38 10° SSE
ISS -1.9 15:28:31 10° W 15:31:37 33° SSW 15:34:42 10° SE
CZ-4C R/B 3.0 15:27:58 10° NW 15:35:00 82° NE 15:43:22 10° SE
Cosmos 1340 Rocket 4.2 15:33:02 10° NNW 15:36:55 44° W 15:40:48 10° SSW
ADEOS 4.3 15:32:36 10° S 15:37:44 58° WSW 15:42:55 10° NNW
ATLAS 2AS CENTAUR R/B 4.0 15:31:14 10° WNW 15:37:48 30° N 15:43:52 11° NE
Cosmos 841 Rocket 3.6 15:33:30 10° S 15:38:32 56° ESE 15:43:34 10° NNE
Cosmos 2034 Rocket 4.1 15:32:40 10° SSW 15:38:50 80° W 15:45:03 10° N
Cosmos 1743 Rocket 4.2 15:37:31 10° NNW 15:41:48 59° W 15:46:03 10° S
Cosmos 1697 Rocket 3.8 15:36:38 10° NW 15:42:03 49° WSW 15:47:25 10° S
Spot 1 4.4 15:37:36 10° NNE 15:42:24 73° ESE 15:47:25 10° S
USA 307 3.0 15:39:19 10° WNW 15:43:32 58° NNE 15:47:30 11° E
Cosmos 372 Rocket 4.0 15:38:45 10° NNW 15:44:01 89° NE 15:49:17 10° SSE
CZ-4C R/B 3.7 15:40:29 10° N 15:44:14 60° WNW 15:47:47 10° SSW
COSMOS 2428 4.5 15:41:49 10° N 15:44:29 13° NNE 15:46:42 11° NE
Cosmos 2322 Rocket 3.0 15:39:41 10° NNW 15:44:43 30° NE 15:49:43 10° ESE
Meteor PRIRODA 3.8 15:41:15 10° S 15:44:52 77° WSW 15:48:30 10° NNW
Cosmos 1937 Rocket 4.2 15:40:05 10° NNW 15:45:21 61° WSW 15:50:34 10° S
USA 234 3.3 15:39:18 10° ESE 15:45:51 77° NNE 15:52:23 10° WNW
ERBS 3.6 15:43:32 10° WNW 15:46:14 24° N 15:48:11 14° NE
Lacrosse 5 rocket 1.1 15:43:24 10° WNW 15:47:16 82° NNE 15:51:22 10° ESE
Cosmos 2150 Rocket 4.5 15:43:30 10° NNW 15:48:18 37° NE 15:53:08 10° ESE
Cosmos 1980 Rocket 2.4 15:42:40 10° NNW 15:48:22 80° WSW 15:53:59 10° SSE
Cosmos 2026 Rocket 3.9 15:45:55 10° N 15:52:06 85° E 15:58:10 10° S
Cosmos 1666 Rocket 3.7 15:48:42 10° N 15:53:05 54° ENE 15:57:22 10° SSE
AQUARIUS 4.1 15:48:52 10° SSE 15:53:18 64° ENE 15:57:46 10° N
EP 1 4.4 15:51:06 10° SW 15:54:15 85° NW 15:56:07 18° NE
Cosmos 1125 Rocket 4.0 15:49:50 10° NNW 15:54:45 38° NE 15:59:40 10° SE
Cosmos 1328 Rocket 4.4 15:51:08 10° SSE 15:54:59 30° E 15:58:52 10° NNE
CORIOLIS 4.1 15:49:48 10° SSE 15:55:11 72° ENE 16:00:38 10° NNW
Meteor 1-26 Rocket 4.4 15:49:16 10° S 15:55:14 71° E 16:01:16 10° NNE
Cosmos 1634 Rocket 4.0 15:49:25 10° S 15:55:42 70° E 16:02:01 10° NNE
Cosmos 1470 Rocket 4.3 15:52:33 10° N 15:56:34 31° ENE 16:00:33 10° SE
Meteor 1-11 Rocket 4.4 15:53:05 10° N 15:58:04 31° ENE 16:03:06 10° SE
Meteor 2-21 Rocket 4.4 15:53:05 10° N 15:59:11 71° ENE 16:05:13 10° SSE
H-2A R/B 2.2 15:54:36 10° SE 15:59:28 48° ENE 16:04:16 10° N
Cosmos 1544 4.2 15:56:43 10° NNE 15:59:38 22° ENE 16:02:33 10° ESE
Cosmos 1812 2.9 15:58:59 10° S 16:02:43 50° E 16:06:28 10° NNE
PSLV R/B 3.7 16:00:03 10° SSE 16:03:40 55° ENE 16:07:23 10° N
Okean O Rocket 2.4 16:00:36 10° SE 16:04:29 30° ENE 16:08:22 10° N
ATLAS CENTAUR R/B 3.7 16:02:52 10° NW 16:05:28 15° N 16:08:07 10° NNE
SL-16 R/B 2.4 16:00:03 10° NNW 16:05:33 48° NE 16:11:02 10° SE
Cosmos 2237 Rocket 4.2 16:05:13 10° N 16:05:48 10° NNE 16:06:24 10° NNE
USA 308 2.9 16:02:02 10° WNW 16:06:17 66° NNE 16:09:18 18° E
CZ-2C R/B 3.9 16:01:50 10° S 16:06:30 50° W 16:11:08 10° NNW
Sich 1 3.6 16:04:28 10° NNW 16:08:43 62° W 16:13:00 10° S
Cosmos 2082 Rocket 2.2 16:04:03 10° SSW 16:09:44 82° ESE 16:15:05 12° NNE
ARGOS 3.5 16:05:34 10° SE 16:10:34 40° ENE 16:15:35 10° N
Cosmos 540 Rocket 3.8 16:05:36 10° SW 16:10:40 66° WNW 16:15:48 10° NNE
Meteor 1-5 Rocket 4.3 16:04:47 10° N 16:10:47 75° ENE 16:16:40 10° SSE
COSMOS 2455 2.9 16:10:28 10° SW 16:16:30 82° NW 16:21:45 14° NE
SMAP 3.4 16:12:17 10° S 16:16:55 68° WSW 16:21:35 10° NNW
NOAA 6 4.4 16:13:16 10° S 16:18:24 70° WSW 16:23:32 10° NNW
CZ-4 R/B 3.7 16:22:56 10° NNE 16:22:56 10° NNE 16:22:57 10° NNE
deb Chang Zheng 4 3.8 16:16:24 10° SE 16:20:31 46° ENE 16:24:39 10° N
Cosmos 2278 4.2 16:16:47 10° NW 16:22:26 63° WSW 16:28:01 10° SSE
Cosmos 1833 Rocket 3.6 16:17:56 10° SW 16:23:19 45° NW 16:28:45 10° NNE
Cosmos 2333 Rocket 3.3 16:20:12 10° NNW 16:24:54 25° NE 16:26:02 23° ENE
CZ-4B DEB 4.4 16:22:01 10° SSE 16:27:31 77° WSW 16:33:02 10° NNW
CZ-2C R/B 2.9 16:25:19 15° NNE 16:29:24 43° E 16:34:20 10° S
USA 305 2.8 16:26:25 10° WNW 16:30:41 84° NNE 16:32:51 28° ESE
Cosmos 2180 Rocket 4.5 16:24:57 10° S 16:31:11 65° E 16:37:23 10° NNE
Cosmos 1655 Rocket 4.0 16:25:02 10° N 16:31:22 61° ENE 16:37:38 10° SSE
Aureole 3 Rocket 4.3 16:27:45 10° SE 16:32:02 32° E 16:37:45 10° NNE
Cosmos 1356 Rocket 3.6 16:28:16 10° N 16:32:21 46° ENE 16:36:27 10° SSE
Cosmos 2219 Rocket 3.4 16:28:32 10° NNW 16:33:00 23° NE 16:33:21 23° NE
Cosmos 44 Rocket 3.9 16:32:06 10° NW 16:36:57 58° WSW 16:41:37 10° SSE
Cosmos 1515 Rocket 3.7 16:37:41 10° SSE 16:41:56 48° E 16:43:15 36° NE
COSMOS 2406 4.2 16:37:33 10° WSW 16:43:00 42° NW 16:48:00 12° NNE
Cosmos 1814 Rocket 4.2 16:38:18 10° SSW 16:43:30 73° WNW 16:47:38 16° NNE
Cosmos 921 Rocket 2.9 16:40:22 10° S 16:44:31 64° ESE 16:45:57 39° NE
CZ-4 R/B 4.3 16:46:03 10° SSE 16:50:10 72° ENE 16:54:19 10° N
Cosmos 1570 Rocket 4.2 16:45:09 10° SSW 16:50:23 73° WNW 16:54:14 19° NNE
MOS 1-B Rocket 4.0 16:44:36 10° NNE 16:50:37 83° ESE 16:57:31 10° SSW
CZ-4B R/B 3.1 16:48:11 10° SSE 16:53:35 83° WSW 16:58:56 10° NNW
USA 267 3.2 16:50:26 30° ENE 16:53:58 85° SSE 17:00:32 10° WSW
Cosmos 2298 Rocket 4.3 16:49:54 10° NNW 16:55:13 71° WSW 17:00:31 10° SSE
Cosmos 371 Rocket 3.8 16:51:12 10° NNW 16:55:08 38° NE 16:55:08 38° NE
CZ-2D R/B 4.4 16:52:24 10° S 16:56:04 43° W 16:59:45 10° NNW
Meteor 2-15 Rocket 4.3 16:53:34 10° S 16:59:37 68° E 17:05:42 10° NNE
ATLAS CENTAUR R/B 2.6 16:53:07 10° WSW 17:00:29 53° NNW 17:01:30 41° NNE
COSMO-SKYMED 1 2.4 16:59:10 40° NNE 17:00:42 78° ESE 17:05:02 10° S
Cosmos 1633 Rocket 4.4 16:57:12 10° NNW 17:01:18 40° W 17:05:24 10° SSW
Cosmos 1151 Rocket 4.1 16:58:20 10° SSW 17:02:31 45° WNW 17:06:44 10° N
Meteor 1-27 Rocket 3.7 16:57:13 10° S 17:02:33 53° E 17:04:01 41° NE
USA 306 3.0 16:58:43 10° WNW 17:02:57 71° SSW 17:03:51 52° SE
Landsat 5 4.0 17:05:04 42° SSE 17:05:04 42° SSE 17:07:53 10° S
APEX 3.6 17:01:43 10° SSW 17:04:24 45° S 17:04:24 45° S
Meteor 2-6 Rocket 4.4 16:59:52 10° SSW 17:05:33 72° WNW 17:11:07 10° N
SJ-11-01 4.4 17:01:45 10° S 17:06:29 76° WSW 17:11:15 10° NNW
Cosmos 2360 Rocket 2.1 17:00:54 10° NNW 17:06:34 63° ENE 17:08:17 43° ESE
Helios 1B 4.4 17:06:10 49° NNE 17:07:19 85° ESE 17:11:40 10° SSW
YAOGAN 1 3.8 17:11:21 30° N 17:11:21 30° N 17:13:37 10° N
Cosmos 2237 4.1 17:04:04 10° NNW 17:09:49 84° ENE 17:13:43 21° SSE
Cosmos 1536 4.4 17:14:40 10° N 17:16:30 26° NNW 17:16:30 26° NNW
ATLAS 5 CENTAUR R/B 2.2 17:13:26 10° NW 17:19:25 55° SW 17:19:39 54° SSW
Cosmos 2266 Rocket 4.3 17:14:06 10° NNW 17:20:28 70° W 17:26:49 10° S
USA 307 3.2 17:19:18 10° WNW 17:23:29 59° SSW 17:23:33 59° SSW
SL-08 RB Rocket 3.9 17:20:35 10° S 17:25:12 72° WSW 17:29:47 10° NNW
Lacrosse 5 rocket 3.6 17:22:59 10° W 17:26:01 21° SW 17:28:57 11° S
NOSS 3-4 (A) 3.9 17:21:23 10° NW 17:27:58 55° NE 17:28:51 52° ENE
NOSS 3-4 (C) 3.9 17:21:29 10° NW 17:28:04 54° NE 17:28:56 52° ENE
Cosmos 1933 Rocket 4.2 17:24:15 10° NNW 17:28:31 54° W 17:32:44 10° S
USA 234 4.1 17:22:56 10° SSE 17:29:10 46° SW 17:35:25 10° WNW
Cosmos 2322 Rocket 2.6 17:23:32 10° NW 17:29:11 63° WSW 17:34:48 10° SSE
COSMOS 2428 3.8 17:25:11 10° NNW 17:28:44 30° N 17:28:44 30° N
ATLAS 2AS CENTAUR R/B 3.4 17:23:56 10° NW 17:30:49 37° NNE 17:31:18 37° NNE
Cosmos 1867 3.6 17:33:39 10° SSW 17:38:28 65° S 17:38:28 65° S
H-2A R/B 4.0 17:34:50 10° SSW 17:39:08 27° W 17:43:22 10° NW
NOSS 3-3 (A) 4.2 17:33:44 10° SSW 17:38:22 50° SSE 17:38:22 50° SSE
NOSS 3-3 (C) 4.2 17:33:50 10° SSW 17:38:27 50° SSE 17:38:27 50° SSE
Okean O Rocket 3.1 17:36:37 10° SSW 17:40:44 37° W 17:44:54 10° NNW
GEOS 3 Rocket 3.6 17:41:55 70° NNW 17:41:55 70° NNW 17:46:36 10° NW
USA 32 4.3 17:39:18 10° SSW 17:44:29 66° W 17:46:22 39° NNW
Cosmos 2322 4.5 17:38:57 10° NNW 17:42:43 39° N 17:42:43 39° N
USA 308 4.1 17:42:03 10° WNW 17:45:21 39° WSW 17:45:21 39° WSW
ATLAS CENTAUR R/B 4.0 17:43:06 10° NNW 17:44:13 14° NNW 17:44:13 14° NNW
SL-16 R/B 3.7 17:44:26 10° NW 17:49:32 35° WSW 17:54:36 10° S
Cosmos 2237 Rocket 4.2 17:47:28 10° NNW 17:49:04 17° N 17:49:04 17° N
Cosmos 2082 Rocket 4.0 17:49:54 10° W 17:54:31 25° NW 17:56:56 19° N
Cosmos 1244 Rocket 4.5 17:52:12 10° N 17:57:58 75° N 17:57:58 75° N
COSMOS 2455 4.4 17:58:19 10° W 18:03:20 26° NNW 18:04:54 24° N
CZ-2C R/B 4.1 18:06:50 20° NNW 18:09:36 32° WNW 18:14:08 10° SW
Cosmos 2333 Rocket 3.0 18:04:07 10° NNW 18:08:05 46° NNW 18:08:05 46° NNW
Cosmos 2219 Rocket 3.5 18:12:03 10° NNW 18:15:05 33° NNW 18:15:05 33° NNW
USA 267 3.8 18:37:47 51° NW 18:37:47 51° NW 18:43:09 10° W
Cosmos 2360 Rocket 4.0 18:45:33 10° NW 18:50:08 26° WSW 18:50:08 26° WSW
ATLAS 2AS CENTAUR R/B 4.3 19:15:18 10° NW 19:18:44 30° NW 19:18:44 30° NW
